OE3MNS-13 Weather Reports


Display with metric or nautical units.
time (UTC)temp
F
wind
direction
speed
MPH
gust
MPH
rain 1hr
in
rain 24hr
in
rain mn
in
humidity
%
barometer
mb
20260506155019 77 156 5.0 13.0 0.00 0.00 0.00 36 1003.0
20260506154018 78 219 2.0 8.0 0.00 0.00 0.00 31 1003.0
20260506153020 78 221 4.0 9.0 0.00 0.00 0.00 31 1003.1
20260506152019 78 229 3.0 9.0 0.00 0.00 0.00 31 1003.1
20260506151038 78 212 3.0 7.0 0.00 0.00 0.00 31 1003.1
20260506150020 79 219 3.0 9.0 0.00 0.00 0.00 31 1003.2
20260506145022 79 222 4.0 11.0 0.00 0.00 0.00 30 1003.1
20260506144023 79 219 4.0 9.0 0.00 0.00 0.00 30 1003.2
20260506143018 80 169 2.0 6.0 0.00 0.00 0.00 30 1003.2
20260506142022 79 203 1.0 4.0 0.00 0.00 0.00 30 1003.2
20260506141022 78 152 2.0 6.0 0.00 0.00 0.00 35 1003.2
20260506140021 78 139 5.0 14.0 0.00 0.00 0.00 35 1003.3
20260506135018 78 133 9.0 22.0 0.00 0.00 0.00 34 1003.2
20260506134020 78 140 9.0 21.0 0.00 0.00 0.00 34 1003.4
20260506132020 78 136 8.0 15.0 0.00 0.00 0.00 35 1003.6
20260506131018 79 131 8.0 13.0 0.00 0.00 0.00 34 1003.8
20260506130017 78 137 9.0 18.0 0.00 0.00 0.00 36 1003.9
20260506125023 77 133 7.0 13.0 0.00 0.00 0.00 36 1004.1
20260506124020 76 138 7.0 15.0 0.00 0.00 0.00 37 1004.2
20260506123019 76 140 9.0 19.0 0.00 0.00 0.00 37 1004.4
20260506122020 75 137 9.0 21.0 0.00 0.00 0.00 39 1004.5
20260506121018 75 131 8.0 18.0 0.00 0.00 0.00 40 1004.6
20260506120018 74 137 9.0 16.0 0.00 0.00 0.00 40 1004.9
20260506115021 75 134 10.0 18.0 0.00 0.00 0.00 39 1005.0
20260506114039 75 131 10.0 19.0 0.00 0.00 0.00 38 1005.1
20260506113020 75 129 9.0 19.0 0.00 0.00 0.00 40 1005.1
20260506112020 75 130 8.0 18.0 0.00 0.00 0.00 41 1005.4
20260506111021 75 126 10.0 18.0 0.00 0.00 0.00 40 1005.5
20260506110023 75 138 10.0 24.0 0.00 0.00 0.00 40 1005.7
20260506105023 75 122 9.0 18.0 0.00 0.00 0.00 42 1005.9
20260506104021 74 128 12.0 22.0 0.00 0.00 0.00 43 1006.2
20260506103020 74 128 11.0 24.0 0.00 0.00 0.00 42 1006.2
20260506102022 74 140 9.0 19.0 0.00 0.00 0.00 42 1006.3
20260506101048 74 141 10.0 26.0 0.00 0.00 0.00 41 1006.3
20260506100020 75 150 8.0 17.0 0.00 0.00 0.00 40 1006.5
20260506095020 75 154 9.0 21.0 0.00 0.00 0.00 40 1006.6
20260506094019 75 151 7.0 15.0 0.00 0.00 0.00 41 1006.7
20260506093021 74 129 8.0 26.0 0.00 0.00 0.00 43 1007.0
20260506092019 73 132 7.0 15.0 0.00 0.00 0.00 43 1007.1
20260506091017 73 136 7.0 18.0 0.00 0.00 0.00 43 1007.0
20260506090019 73 142 5.0 14.0 0.00 0.00 0.00 42 1007.1
20260506085023 72 139 4.0 9.0 0.00 0.00 0.00 43 1007.2
20260506084022 73 125 4.0 9.0 0.00 0.00 0.00 42 1007.1
20260506083019 74 110 7.0 17.0 0.00 0.00 0.00 42 1007.3
20260506082019 74 351 3.0 6.0 0.00 0.00 0.00 43 1007.4
20260506081023 73 359 2.0 4.0 0.00 0.00 0.00 44 1007.4
20260506073022 69 20 1.0 3.0 0.00 0.00 0.00 52 1007.9
20260506072018 68 84 2.0 3.0 0.00 0.00 0.00 51 1007.8
20260506071021 68 258 1.0 2.0 0.00 0.00 0.00 53 1008.0
20260506061519 62 228 1.0 3.0 0.00 0.00 0.00 62 1008.4
20260506060522 61 235 1.0 3.0 0.00 0.00 0.00 69 1008.4
20260506050521 59 180 0.0 1.0 0.00 0.00 0.00 72 1008.6
20260506044520 58 0.0 0.0 0.00 0.00 0.00 75 1008.4
20260506043519 58 237 0.0 1.0 0.00 0.00 0.00 75 1008.2
20260506042518 58 290 1.0 2.0 0.00 0.00 0.00 74 1008.2
20260506041559 58 327 1.0 2.0 0.00 0.00 0.00 73 1008.2
20260506040518 58 309 0.0 1.0 0.00 0.00 0.00 73 1008.1
20260506035520 58 235 1.0 7.0 0.00 0.00 0.00 73 1007.9
20260506034518 58 247 2.0 4.0 0.00 0.00 0.00 73 1007.9
20260506033519 58 271 2.0 8.0 0.00 0.00 0.00 73 1007.8
20260506032523 59 274 2.0 7.0 0.00 0.00 0.00 72 1007.9
20260506031518 59 300 3.0 9.0 0.00 0.00 0.00 71 1008.0
20260506030522 59 256 2.0 7.0 0.00 0.00 0.00 71 1007.8
20260506025518 59 261 5.0 16.0 0.00 0.00 0.00 71 1007.8
20260506024521 59 268 3.0 9.0 0.00 0.00 0.00 72 1008.1
20260506023519 60 287 2.0 7.0 0.00 0.00 0.00 72 1008.0
20260506022518 60 278 3.0 6.0 0.00 0.00 0.00 72 1008.0
20260506021517 60 272 3.0 11.0 0.00 0.00 0.00 72 1007.9
20260506020448 0 240 4.0 10.0 0.00 0.00 0.00 1007.9
20260506020041 60 273 3.0 9.0 0.00 0.00 0.00 71 1007.9
20260506015021 61 270 4.0 11.0 0.00 0.00 0.00 70 1007.6
20260506014021 61 248 5.0 15.0 0.00 0.00 0.00 70 1007.5
20260506013021 61 249 4.0 11.0 0.00 0.00 0.00 71 1007.6
20260506012041 61 252 4.0 9.0 0.00 0.00 0.00 71 1007.4
20260506011021 61 248 4.0 15.0 0.00 0.00 0.00 70 1007.3
20260506010017 61 265 4.0 14.0 0.00 0.00 0.00 69 1007.3
20260506005020 61 280 4.0 13.0 0.00 0.00 0.00 69 1007.2
20260506004022 62 266 4.0 16.0 0.00 0.00 0.00 67 1007.0
20260506003020 62 253 5.0 16.0 0.00 0.00 0.00 66 1007.1
20260506002018 63 270 5.0 15.0 0.00 0.00 0.00 65 1007.0
20260506001036 63 252 5.0 17.0 0.00 0.00 0.00 64 1006.8
20260506000039 63 251 3.0 8.0 0.00 0.00 0.00 63 1006.6
20260505235017 63 268 3.0 9.0 0.00 0.00 0.00 63 1006.4
20260505234018 64 252 3.0 9.0 0.00 0.00 0.00 62 1006.2
20260505233021 64 254 4.0 10.0 0.00 0.00 0.00 61 1006.2
20260505232021 64 268 4.0 10.0 0.00 0.00 0.00 61 1006.2
20260505231019 63 263 4.0 9.0 0.00 0.00 0.00 61 1006.2
20260505230018 63 252 2.0 8.0 0.00 0.00 0.00 61 1005.9
20260505225018 63 257 2.0 8.0 0.00 0.00 0.00 62 1005.9
20260505224039 62 278 2.0 7.0 0.00 0.00 0.00 62 1005.6
20260505223020 63 276 2.0 7.0 0.00 0.00 0.00 61 1005.4
20260505222022 63 283 2.0 4.0 0.00 0.00 0.00 59 1005.4
20260505221019 64 240 2.0 7.0 0.00 0.00 0.00 59 1005.2
20260505220018 64 279 1.0 8.0 0.00 0.00 0.00 58 1005.3
20260505215020 64 272 3.0 13.0 0.00 0.00 0.00 57 1005.1
20260505214027 65 260 3.0 11.0 0.00 0.00 0.00 56 1005.0
20260505213019 65 273 3.0 11.0 0.00 0.00 0.00 56 1005.1
20260505212021 65 269 4.0 11.0 0.00 0.00 0.00 56 1004.9
20260505211038 64 242 3.0 14.0 0.00 0.00 0.00 55 1004.6
20260505210017 64 222 2.0 8.0 0.00 0.00 0.00 53 1004.6
20260505205023 63 221 3.0 9.0 0.00 0.00 0.00 53 1004.5
20260505204022 62 244 2.0 8.0 0.00 0.00 0.00 55 1004.5
20260505203017 62 262 0.0 2.0 0.00 0.00 0.00 57 1004.2
20260505202020 63 263 1.0 2.0 0.00 0.00 0.00 55 1003.9
20260505201018 63 250 1.0 2.0 0.00 0.00 0.00 54 1003.7
20260505200020 64 154 0.0 2.0 0.00 0.00 0.00 51 1003.5
20260505195019 65 169 1.0 3.0 0.00 0.00 0.00 51 1003.5
20260505194023 66 137 0.0 1.0 0.00 0.00 0.00 49 1003.4
20260505193019 66 151 2.0 4.0 0.00 0.00 0.00 48 1003.4
20260505192020 67 142 4.0 8.0 0.00 0.00 0.00 47 1003.3
20260505191023 67 138 5.0 10.0 0.00 0.00 0.00 47 1003.2
20260505190045 67 137 5.0 10.0 0.00 0.00 0.00 46 1003.2
20260505185021 68 138 5.0 9.0 0.00 0.00 0.00 46 1003.1
20260505184041 68 144 6.0 9.0 0.00 0.00 0.00 46 1003.1
20260505183022 69 140 6.0 9.0 0.00 0.00 0.00 45 1003.0
20260505182019 70 142 6.0 11.0 0.00 0.00 0.00 44 1003.0
20260505181021 70 142 6.0 10.0 0.00 0.00 0.00 43 1002.9
20260505180040 71 143 6.0 14.0 0.00 0.00 0.00 43 1002.9
20260505175019 71 135 7.0 13.0 0.00 0.00 0.00 42 1002.9
20260505174104 72 143 6.0 11.0 0.00 0.00 0.00 42 1002.9
20260505173019 73 137 6.0 14.0 0.00 0.00 0.00 41 1002.9
20260505172016 73 143 9.0 17.0 0.00 0.00 0.00 40 1002.8
20260505171019 74 139 6.0 11.0 0.00 0.00 0.00 40 1002.8
20260505170020 75 144 5.0 11.0 0.00 0.00 0.00 39 1003.0
20260505165018 75 146 5.0 10.0 0.00 0.00 0.00 38 1003.1
20260505164018 75 138 6.0 11.0 0.00 0.00 0.00 38 1003.2
20260505163019 75 125 5.0 8.0 0.00 0.00 0.00 37 1003.2
20260505162519 75 147 6.0 15.0 0.00 0.00 0.00 37 1003.2
20260505161517 76 147 5.0 11.0 0.00 0.00 0.00 36 1003.3
20260505160616 76 156 4.0 9.0 0.00 0.00 0.00 35 1003.4